Location: Fort Wayne
(41.1310°N, 85.1290°W)
Time: 06:13:18
(UTC-04:00)

IDEFIX/ARIANE 42P - Visible Passes

Search period start: 22 September 2014 00:00
Search period end: 02 October 2014 00:00
Orbit: 787 x 803 km, 98.3° (Epoch: 21 September)

Date Brightness Start Highest point End Pass type
(mag) Time Alt. Az. Time Alt. Az. Time Alt. Az.
22 Sep 2.5 21:02:17 12° SSE 21:07:10 70° ENE 21:12:23 10° N visible
22 Sep 5.2 22:44:40 10° WSW 22:47:17 14° W 22:49:55 10° WNW visible
23 Sep 3.1 20:34:23 10° SE 20:39:10 39° ENE 20:44:00 10° N visible
23 Sep 4.5 22:14:49 11° SSW 22:18:52 26° W 22:23:11 10° NW visible
24 Sep 3.8 20:07:19 10° ESE 20:11:18 23° ENE 20:15:18 10° NNE visible
24 Sep 3.5 21:46:31 15° SSW 21:50:34 46° W 21:55:37 10° NNW visible
25 Sep 2.5 21:18:13 16° SSE 21:22:24 85° WSW 21:27:40 10° NNW visible
26 Sep 2.7 20:49:55 14° SE 20:54:20 54° ENE 20:59:26 10° N visible
26 Sep 4.9 22:30:45 10° SW 22:34:16 18° W 22:37:50 10° NW visible
27 Sep 3.4 20:21:53 10° SE 20:26:23 31° ENE 20:30:56 10° N visible
27 Sep 4.1 22:02:28 16° SSW 22:05:54 33° W 22:10:37 10° NNW visible
28 Sep 4.0 19:55:08 10° ESE 19:58:34 18° ENE 20:02:00 10° NNE visible
28 Sep 3.0 21:34:10 21° S 21:37:39 61° W 21:42:51 10° NNW visible
29 Sep 2.5 21:05:52 20° SSE 21:09:31 75° ENE 21:14:47 10° N visible
29 Sep 5.3 22:47:23 10° WSW 22:49:42 13° W 22:52:01 10° WNW visible
30 Sep 3.0 20:37:34 15° SE 20:41:31 42° ENE 20:46:26 10° N visible
30 Sep 4.6 22:18:25 16° SW 22:21:15 24° W 22:25:27 10° NW visible
01 Oct 3.7 20:09:30 10° ESE 20:13:37 24° ENE 20:17:46 10° NNE visible
01 Oct 3.6 21:50:07 23° SSW 21:52:57 43° W 21:57:57 10° NNW visible
